Wind_Speed
41 41 41 41 40 40 40 38 36 35 33 33 34 33 33 31 28 26 24 21 20 20 19 18 18 19 18 17 16 16 16 16 15 14 14 14 13 11 12 12 13 13 12 12 12 12 12 12 13 13 13 15 16 14 11 12 13 14 14 14 14 15 16 16 19 22 23 22 21 20 20 21 23 23 22 21 21 22 23 24 23 23 24 25 25
42 42 42 42 41 40 39 39 38 38 37 35 35 35 35 32 30 28 25 23 22 21 20 18 19 20 18 17 17 17 17 17 16 15 15 15 13 12 12 13 14 14 13 12 11 11 11 12 13 13 13 15 15 12 10 12 14 14 14 14 15 16 16 17 19 21 22 23 23 22 22 21 22 23 23 23 23 23 24 25 24 23 24 25 26
42 43 43 42 41 40 40 40 40 40 40 38 36 37 36 33 32 29 24 23 23 22 21 20 20 20 19 17 18 19 18 17 17 17 16 15 15 13 13 13 14 13 13 12 11 11 12 13 13 12 12 14 14 12 12 13 14 15 16 15 16 18 19 19 20 22 23 24 23 23 24 23 23 24 25 25 25 24 25 25 23 23 23 25 26
40 42 43 42 42 41 42 43 42 41 42 40 38 38 36 33 31 27 23 23 24 22 20 21 22 22 20 19 20 19 18 18 18 18 17 17 17 16 15 14 14 13 13 13 12 12 12 13 14 12 12 13 13 13 14 15 16 17 17 17 18 19 20 20 21 22 24 26 24 23 24 25 25 25 25 25 25 25 25 25 23 23 23 23 24
37 40 42 41 41 43 44 44 43 43 43 43 40 34 28 27 27 26 24 25 26 24 22 24 25 24 22 22 22 20 19 19 20 19 18 19 19 18 15 15 15 14 14 14 13 13 14 15 15 13 13 14 14 13 14 16 17 18 19 19 19 20 20 22 22 21 22 25 25 23 23 25 25 25 25 26 25 24 24 24 23 23 22 21 22
33 35 39 42 42 43 44 44 44 44 43 38 32 26 24 27 30 30 30 31 31 29 28 28 29 28 25 23 23 21 20 20 20 20 20 20 20 17 16 15 15 16 15 15 15 15 15 16 15 15 15 15 14 14 15 16 17 19 20 20 21 21 21 21 22 20 20 22 24 25 24 23 24 25 24 25 25 25 25 25 23 22 21 21 23
30 31 35 39 41 43 44 44 44 42 40 37 34 32 33 34 34 34 36 37 36 35 34 33 32 29 26 25 24 21 20 21 19 19 20 21 20 17 16 16 17 17 17 16 16 15 16 16 16 16 16 17 16 16 15 16 17 19 20 20 21 21 20 20 21 20 20 20 22 25 25 24 24 25 25 25 25 26 26 25 24 23 22 22 25
29 32 34 35 39 42 40 39 39 36 37 41 39 34 35 37 38 41 43 44 43 42 42 40 36 31 28 27 25 23 23 22 19 18 19 20 19 18 17 17 18 19 19 18 17 17 17 17 17 17 17 18 18 16 15 16 17 18 20 21 21 21 21 22 22 22 21 21 23 25 26 26 25 25 25 24 24 24 24 25 27 25 24 25 26
32 34 35 36 38 35 30 31 33 33 36 39 34 29 35 43 47 49 50 49 46 43 43 42 36 31 30 29 27 26 26 23 18 18 19 19 19 18 18 18 18 20 21 19 19 19 19 19 18 18 18 19 19 17 17 18 18 19 20 21 22 22 23 24 24 24 24 23 26 27 26 26 24 23 23 23 24 26 26 27 27 25 26 28 28
34 35 35 37 34 26 26 32 34 33 35 36 33 32 37 44 48 52 53 51 47 43 43 43 39 35 33 32 32 30 28 24 21 20 19 18 18 18 19 19 19 20 22 22 21 20 19 19 19 19 19 20 20 20 21 21 21 21 21 21 22 23 24 24 24 25 24 24 26 27 26 27 26 24 24 26 27 28 27 26 26 25 27 30 31
33 34 33 34 29 22 25 32 32 31 32 32 32 32 33 38 44 50 52 50 48 46 44 44 42 39 37 36 36 34 31 27 26 25 23 20 20 19 20 21 20 20 22 23 22 21 20 19 19 21 23 23 23 24 25 26 26 24 22 22 22 23 24 24 25 25 25 25 26 26 26 28 29 28 27 28 27 26 26 27 29 29 30 31 32
29 30 29 30 26 19 21 27 27 28 28 24 23 24 26 30 37 45 51 50 48 47 46 44 43 42 41 40 38 35 32 29 28 28 28 25 23 21 22 23 22 21 22 23 23 22 21 20 20 23 26 27 27 25 25 26 25 23 22 22 22 23 23 24 25 25 25 26 27 27 27 28 29 29 28 26 26 27 30 32 31 30 30 29 29
26 26 25 25 21 17 19 25 25 25 23 18 17 19 21 24 29 38 48 51 50 48 46 46 45 42 41 41 38 35 32 29 28 29 30 28 25 25 26 24 22 23 24 24 24 23 23 23 24 25 27 29 28 24 21 22 22 21 22 22 22 22 24 26 27 27 27 27 27 27 27 26 27 28 27 26 27 29 32 32 30 28 27 27 28
22 21 19 19 17 15 16 20 20 21 20 18 18 19 20 22 25 32 43 50 51 50 47 47 46 42 40 39 35 32 30 27 27 28 28 27 28 28 28 26 24 26 26 26 26 25 26 27 27 26 27 27 26 23 21 19 19 20 21 22 22 23 24 26 26 26 25 26 26 26 25 24 25 27 27 27 28 30 29 29 31 31 29 29 30
19 18 16 15 15 14 14 14 16 19 19 18 20 20 20 21 23 29 38 44 49 52 50 48 46 42 39 35 33 32 28 25 27 28 26 26 29 29 28 27 27 28 28 28 28 27 28 30 28 25 26 27 24 22 20 19 19 21 21 22 24 24 25 25 25 24 25 26 27 27 25 24 25 27 28 29 30 32 30 29 31 30 27 27 27
18 17 15 15 14 12 11 11 13 16 18 19 21 21 20 21 23 29 34 37 44 50 50 48 46 41 36 34 33 32 26 22 27 30 27 28 29 28 27 28 28 28 29 30 30 30 31 32 29 26 25 26 24 21 20 19 21 22 22 22 23 24 25 25 26 27 27 28 28 27 26 26 26 26 27 28 29 29 26 24 25 24 23 25 26
18 17 16 15 13 10 9 10 12 14 16 18 20 21 21 22 25 30 33 35 40 45 44 44 44 39 37 35 32 29 24 23 28 31 29 31 30 26 27 29 29 29 32 32 30 29 29 28 27 25 22 22 23 21 20 21 22 22 22 22 23 24 24 24 24 26 26 27 28 27 27 27 27 26 25 25 24 22 21 20 21 21 23 27 30
17 16 15 14 11 9 9 9 10 12 14 16 17 18 20 21 24 30 35 38 40 41 40 39 38 37 37 35 29 25 24 24 28 30 30 33 32 27 27 28 29 31 34 32 28 28 27 26 25 22 20 21 23 22 22 22 21 20 21 22 23 24 23 21 19 19 22 23 23 23 24 26 27 26 25 23 21 20 21 22 21 19 23 29 32
16 15 14 12 10 8 8 8 10 11 12 14 14 15 18 20 21 25 32 37 39 38 37 37 36 35 34 31 26 24 24 26 29 30 31 33 32 28 27 27 29 33 32 27 27 27 26 25 22 19 20 22 23 22 22 21 20 20 20 20 20 20 21 19 16 16 19 19 19 19 19 20 21 22 21 21 21 21 22 23 21 19 23 29 31
16 15 13 11 8 7 7 8 9 9 10 13 13 13 16 19 19 21 26 33 35 33 31 31 32 31 29 26 24 23 23 26 29 29 30 31 28 26 26 27 31 33 27 25 26 26 23 20 20 19 20 22 22 22 22 21 20 21 21 18 16 18 21 22 21 21 20 19 18 18 17 17 18 19 20 21 21 20 21 22 22 23 26 30 31
14 12 10 9 8 7 7 7 8 9 10 12 12 12 13 14 16 19 23 27 29 28 26 26 27 27 26 24 23 24 24 25 25 26 27 25 23 24 27 29 31 30 26 25 27 26 18 15 18 21 21 21 21 22 21 21 20 21 21 20 19 21 23 24 24 22 19 16 16 17 17 18 18 19 20 20 19 20 21 21 22 23 25 28 30
12 10 9 8 7 7 7 7 7 9 9 9 9 10 11 11 12 15 18 19 20 22 22 22 23 23 23 24 26 26 25 22 21 21 22 21 22 25 27 26 24 23 22 20 20 18 13 12 16 21 21 21 21 21 21 21 21 20 21 21 21 22 22 22 21 17 14 14 15 16 17 18 19 19 20 20 19 19 20 22 24 26 28 30 31
10 8 7 7 6 6 6 6 7 7 6 6 7 7 8 8 9 12 14 16 16 17 18 18 18 19 20 23 25 25 21 18 18 19 20 21 23 23 22 20 18 16 14 13 12 12 12 14 18 21 21 21 22 21 21 21 20 20 20 20 20 21 21 20 17 13 13 14 15 16 17 18 19 20 20 20 20 21 24 27 30 32 33 33 32
8 6 6 6 7 6 5 5 6 5 4 5 5 5 6 7 9 12 15 16 16 15 16 16 17 18 19 20 20 19 17 16 18 20 19 18 18 17 16 16 15 12 10 11 12 13 14 17 20 22 23 23 22 21 21 20 19 19 20 19 19 20 18 16 13 12 14 15 15 17 19 18 19 20 20 22 25 27 30 32 31 31 31 30 30
8 8 9 9 9 8 6 6 6 4 3 4 4 6 8 9 10 12 15 16 16 16 17 17 18 19 18 16 15 16 17 19 20 19 16 15 15 14 13 13 13 11 9 11 14 16 19 21 23 24 24 23 22 21 20 19 18 18 19 18 18 16 14 12 12 13 15 16 16 18 19 18 18 20 23 27 30 31 30 28 27 27 27 27 27
12 12 13 12 10 8 7 7 7 6 5 6 7 8 9 10 10 12 14 15 17 17 17 16 17 18 17 15 16 17 18 18 17 15 15 16 15 14 12 11 10 10 10 13 16 19 21 23 23 23 23 21 21 20 20 20 20 18 17 16 14 12 11 13 15 17 17 17 17 17 17 18 20 23 27 29 29 27 25 24 24 25 25 24 25
15 14 13 11 10 9 8 9 9 8 7 8 9 8 8 10 11 13 15 17 18 17 16 15 16 18 18 18 17 16 16 15 14 15 16 15 14 13 13 11 9 8 10 14 18 20 21 24 24 23 23 22 21 19 18 18 16 14 13 13 11 11 13 15 17 19 19 19 18 18 19 22 24 25 25 24 23 22 21 21 23 24 22 22 24
14 13 12 11 10 10 9 9 9 9 9 9 10 9 9 10 11 13 16 18 17 16 16 17 17 18 17 16 15 14 14 13 13 15 15 13 13 13 11 9 9 9 9 14 19 21 21 22 20 18 17 17 14 12 12 12 11 10 11 11 12 14 16 17 17 18 18 18 19 21 23 23 23 22 20 19 20 20 19 20 21 21 20 20 21
13 12 12 11 11 10 10 9 9 10 11 13 15 15 14 15 15 14 16 18 17 15 14 15 16 15 12 10 11 11 11 12 13 13 14 14 13 12 10 9 11 12 12 15 19 19 16 14 13 11 10 9 8 8 9 11 12 12 12 13 13 13 14 14 14 15 15 17 21 23 22 20 19 18 18 18 19 19 19 20 21 20 19 19 19
14 13 12 12 12 10 10 10 11 11 11 13 16 16 16 17 17 16 15 16 17 16 14 13 14 12 9 8 11 11 11 13 13 13 14 14 14 13 12 12 13 14 15 17 18 16 12 11 12 12 10 9 9 10 11 13 13 13 14 15 15 13 13 13 12 13 16 20 22 20 18 17 17 17 16 17 18 19 19 19 19 18 19 20 20
15 13 13 12 12 11 11 11 12 11 10 11 14 14 13 13 15 15 15 16 17 16 14 13 13 13 12 12 13 13 13 12 12 14 15 15 14 15 15 14 14 15 16 17 17 14 10 10 12 11 10 10 11 12 12 13 14 14 14 14 13 13 12 12 13 16 20 21 19 16 15 15 15 16 16 17 18 19 18 18 18 18 18 20 20
14 14 13 11 11 11 11 11 11 12 11 11 13 14 12 11 13 16 17 17 16 14 13 13 14 15 16 16 14 13 13 13 14 16 16 15 15 16 15 14 14 15 16 17 15 11 9 11 12 11 11 12 12 12 13 13 13 13 13 13 13 11 11 13 17 21 21 17 14 13 14 14 14 15 16 16 17 18 18 18 18 17 18 20 21
13 13 13 11 10 12 12 11 11 11 11 10 11 12 12 11 13 16 17 16 12 10 11 12 13 14 16 16 13 12 11 13 15 16 16 16 16 15 14 14 15 16 15 15 12 9 8 10 10 11 12 12 12 12 13 13 13 12 13 13 12 11 13 17 20 20 16 13 12 12 12 13 14 15 15 16 16 17 17 17 17 17 18 21 22
12 12 13 11 10 11 12 12 12 12 11 10 10 11 11 9 10 15 17 15 9 8 9 10 12 13 13 13 13 12 12 14 15 16 16 16 16 15 14 14 15 15 14 12 9 7 7 9 10 11 12 12 12 12 13 13 13 13 13 13 12 12 14 17 17 13 11 11 11 11 12 13 14 14 15 15 16 16 16 17 17 17 19 22 23
14 14 13 11 9 10 10 11 12 12 11 10 10 11 11 11 11 13 14 11 8 10 11 11 11 12 11 12 12 13 13 15 16 16 16 15 15 14 14 13 12 11 12 11 9 8 8 10 11 11 11 11 11 12 12 12 12 12 12 12 12 12 13 13 11 10 10 10 9 10 12 12 13 13 14 15 16 16 16 16 16 17 19 22 24
14 13 13 11 9 9 9 10 10 10 9 9 10 11 11 11 10 10 11 10 8 10 12 12 11 11 11 11 12 12 14 15 16 16 16 15 15 14 12 9 6 6 7 8 8 7 9 11 11 10 10 11 11 12 12 11 12 13 14 13 12 12 11 9 9 10 10 8 9 10 12 12 12 13 14 15 15 15 15 16 17 17 18 21 23
11 10 10 10 8 8 9 10 11 11 10 10 10 10 10 9 9 8 8 9 9 9 11 12 12 12 11 11 11 12 13 14 15 16 16 15 14 13 9 5 4 6 7 8 9 9 10 10 9 9 10 10 10 11 11 11 11 12 14 14 14 12 9 8 8 9 8 7 8 10 11 11 12 13 14 14 15 15 15 16 17 17 18 20 22
11 9 9 8 7 6 8 11 13 12 11 10 9 8 7 7 8 8 8 8 9 10 11 11 11 10 11 11 11 12 13 14 16 17 16 14 13 11 7 5 5 7 9 9 10 10 9 9 9 9 10 10 10 11 11 11 10 11 12 13 12 9 8 7 7 7 7 7 8 10 10 11 12 13 14 14 15 15 15 16 16 17 18 19 19
11 8 5 6 6 6 8 12 14 13 11 9 8 7 7 7 8 8 8 8 9 9 9 9 8 9 11 12 11 12 14 16 17 16 14 13 11 9 7 6 7 8 8 9 10 11 10 9 10 10 10 10 11 12 11 11 11 12 12 11 8 7 6 6 6 7 7 7 8 9 10 11 12 13 13 13 14 15 15 16 16 17 17 18 18
9 5 3 5 8 10 11 12 13 12 10 9 7 7 8 8 7 7 7 7 7 8 8 7 7 9 12 13 13 13 15 17 17 15 13 11 10 8 7 7 8 9 9 9 10 10 10 9 9 10 10 10 11 11 12 11 11 11 10 8 6 6 6 6 6 7 7 7 8 8 9 11 12 13 13 13 14 15 15 15 16 16 17 17 17
10 7 5 8 12 12 12 12 12 11 11 10 9 8 8 8 7 7 7 7 7 7 7 7 7 9 11 12 11 12 14 14 14 12 10 10 10 9 8 8 9 9 9 9 10 10 9 9 9 10 9 9 10 10 10 10 9 8 7 7 6 6 6 6 7 7 7 7 8 8 9 10 11 12 14 14 15 15 15 15 15 16 16 16 16
15 10 8 12 14 14 13 13 13 13 12 11 9 8 8 7 6 6 7 7 6 7 7 8 8 9 11 11 10 11 12 12 12 11 11 11 11 10 9 9 9 10 9 9 10 10 9 9 9 9 8 9 9 9 9 9 8 7 7 7 7 6 5 5 7 8 7 7 8 8 9 10 11 12 13 15 15 14 14 14 15 15 16 16 16
15 13 12 15 17 16 15 15 14 14 13 10 9 7 7 6 5 5 6 6 7 7 8 8 8 8 10 10 12 14 14 13 12 12 12 12 11 10 9 8 9 9 9 9 10 10 9 9 9 8 8 10 10 9 9 9 8 7 7 7 7 7 6 6 7 8 8 8 9 9 9 10 11 11 12 14 14 14 14 14 15 15 15 16 15
13 15 17 18 17 17 16 15 14 12 10 7 6 7 7 6 5 5 6 6 6 6 6 6 7 7 8 10 14 16 16 15 13 12 11 11 10 10 9 9 9 9 9 8 9 10 10 8 8 8 10 11 11 10 9 10 9 8 8 8 7 7 7 7 8 9 9 9 10 9 9 9 10 10 12 13 13 14 13 13 14 15 15 15 15
14 18 20 19 16 15 14 12 10 9 7 7 8 9 8 7 6 6 6 5 4 4 5 6 7 7 8 10 13 15 16 15 14 12 11 12 11 10 9 10 10 11 9 8 10 11 10 8 8 9 11 11 11 10 9 9 9 9 9 9 8 7 8 8 9 10 10 10 10 9 9 9 9 9 11 12 12 13 13 13 14 14 15 15 15
16 18 19 18 15 13 12 9 7 7 7 7 6 5 4 4 5 5 5 5 4 5 5 6 7 7 8 9 11 13 14 14 13 13 13 14 12 10 10 12 12 11 8 8 11 12 10 8 9 9 10 10 11 11 10 9 9 9 9 9 8 8 9 9 10 10 11 11 11 10 9 9 8 9 11 12 12 12 13 13 13 13 14 14 15
16 16 16 15 12 9 7 6 6 6 4 3 3 4 4 5 5 4 4 5 5 5 5 5 6 7 8 9 10 12 12 13 13 14 14 14 11 10 11 13 13 10 8 9 10 11 10 9 10 10 10 11 12 11 10 10 10 10 10 10 9 9 10 10 11 11 11 11 11 11 10 8 8 9 10 11 11 12 12 12 12 13 13 14 15
10 9 9 9 8 6 6 5 5 4 4 5 5 5 5 5 4 3 3 3 3 4 4 6 6 6 7 8 9 10 12 12 13 14 14 12 10 10 12 13 11 8 8 8 8 8 8 10 10 10 11 11 12 11 11 11 11 10 10 10 10 10 10 10 11 12 12 12 12 11 9 8 8 8 9 9 10 11 12 12 12 12 12 12 14
6 6 7 7 6 6 5 5 5 5 6 6 6 5 5 4 4 3 3 3 3 4 5 6 7 7 7 8 9 10 11 11 12 12 13 12 10 10 13 13 11 9 8 8 8 8 9 10 11 11 11 11 11 11 11 11 11 11 11 11 11 10 10 11 12 12 12 12 11 9 7 7 8 7 8 9 9 10 11 11 10 11 11 12 12
5 6 7 7 7 8 8 7 7 7 6 6 5 5 4 3 3 3 3 4 5 6 7 7 8 8 9 9 9 10 11 11 11 11 11 12 11 11 12 13 12 9 8 8 8 8 9 10 11 11 10 10 11 11 10 11 11 11 11 11 11 10 11 11 12 12 12 11 10 8 6 6 7 7 6 7 8 9 10 10 10 10 11 11 11
6 6 7 7 7 7 7 7 7 7 6 5 5 4 3 3 3 3 4 5 5 6 7 8 9 10 10 11 11 11 11 12 12 12 12 13 13 12 13 14 13 10 8 8 9 9 9 10 11 11 10 10 11 11 10 11 12 12 11 11 11 11 11 11 12 12 11 10 9 7 5 5 7 6 6 7 7 7 7 9 11 10 10 10 10
Wind_Direction
227 230 231 232 234 235 236 238 239 238 239 242 243 243 244 243 242 241 241 244 247 247 247 247 253 255 249 243 236 232 233 228 222 225 230 233 235 236 239 242 244 247 246 245 245 247 250 253 256 260 264 267 271 275 279 283 288 289 288 286 284 283 282 282 283 286 292 295 294 292 293 293 294 295 296 297 298 298 299 300 301 301 299 298 298
227 229 231 233 235 236 239 239 239 240 242 240 240 242 243 242 242 239 239 242 245 247 248 248 252 251 243 244 247 240 238 236 227 223 228 234 237 240 243 245 246 246 247 246 244 244 248 253 258 260 264 268 272 275 273 278 284 286 284 281 280 281 282 282 284 287 290 294 296 294 294 294 294 295 296 296 299 300 297 297 298 296 296 298 298
229 231 232 234 236 237 240 241 240 241 242 240 240 242 241 241 241 239 239 243 247 250 250 248 247 243 241 252 257 247 241 241 235 227 229 235 238 239 241 244 247 247 246 247 246 248 254 259 262 264 265 268 273 276 278 284 290 292 292 290 287 290 293 289 289 291 292 294 295 295 295 295 294 296 298 298 301 302 300 298 296 293 292 293 294
230 233 234 234 237 238 239 241 241 241 241 242 242 242 242 243 242 241 243 249 254 255 251 250 245 240 247 257 253 245 242 243 240 232 231 240 245 246 244 243 245 245 246 247 247 250 256 259 261 262 261 263 269 279 288 296 301 300 299 297 293 294 297 292 289 290 292 295 297 297 295 295 297 299 301 302 303 303 302 301 299 297 296 294 292
225 233 237 237 238 239 240 242 243 242 242 244 245 243 239 240 243 245 247 250 253 252 251 252 247 241 248 254 248 244 243 242 240 234 235 246 252 253 251 246 244 245 246 248 249 251 253 255 258 259 258 260 267 278 288 296 302 303 301 299 296 295 296 296 293 286 283 289 297 300 296 294 297 300 301 303 303 301 300 300 298 297 297 294 293
219 226 236 240 240 241 241 242 244 246 246 245 240 234 231 238 245 247 246 248 248 246 244 245 245 245 246 244 242 243 240 236 235 235 240 250 254 255 255 250 245 246 247 248 252 254 255 256 257 256 257 262 268 277 285 292 299 304 305 304 303 301 297 294 291 284 277 281 291 299 297 292 294 297 300 301 300 299 299 298 296 295 294 292 292
213 218 230 238 241 244 244 246 246 245 246 243 235 233 238 242 245 246 247 247 244 243 242 239 240 245 243 235 234 234 231 230 232 235 241 249 253 254 257 255 251 250 250 250 252 255 259 259 259 258 259 264 272 279 287 294 299 303 304 303 302 298 292 288 287 284 281 279 283 290 294 293 292 295 299 300 298 298 300 298 296 294 292 292 292
213 219 227 232 240 244 244 245 242 237 241 240 233 235 243 245 244 244 243 242 240 240 241 238 237 239 237 232 229 227 225 223 223 229 238 246 251 255 259 261 259 257 257 256 255 255 258 258 259 260 261 266 275 282 286 292 297 300 300 300 299 295 292 292 293 292 288 285 284 287 291 294 294 295 298 297 293 295 298 297 295 294 293 293 293
220 226 230 232 237 240 237 236 236 238 244 241 231 235 244 243 241 241 241 241 240 239 239 239 238 238 236 230 225 223 219 212 211 223 231 240 250 256 262 265 264 263 263 262 259 257 257 258 259 260 260 265 274 280 282 286 291 294 296 297 296 295 294 295 297 297 295 293 292 293 293 293 293 295 295 293 291 295 298 297 294 294 295 295 294
229 231 232 235 237 235 235 240 242 248 251 247 245 250 249 242 239 240 242 243 241 239 240 240 238 237 236 229 222 218 212 210 217 221 223 235 246 251 259 264 263 264 264 263 261 258 259 262 265 267 268 270 273 277 279 282 286 290 292 292 291 291 293 294 294 296 296 295 295 296 296 295 296 297 295 294 295 297 299 296 294 295 296 296 295
232 233 234 240 240 234 242 249 248 250 254 254 258 262 258 251 244 240 241 241 240 239 239 239 237 236 236 230 223 217 211 215 224 217 212 225 237 243 254 261 263 263 264 264 261 258 261 265 266 271 276 278 278 279 280 282 284 284 286 288 289 290 291 291 293 295 294 293 293 294 294 295 297 297 296 296 296 296 295 294 296 298 298 298 297
230 238 241 247 243 229 244 255 249 249 257 261 263 266 264 258 248 241 239 239 239 238 237 237 237 237 234 228 223 219 215 221 226 217 212 221 228 235 248 256 260 263 265 265 263 261 264 266 265 271 281 286 287 285 282 282 281 279 281 285 287 288 289 288 291 293 292 291 291 291 291 293 294 295 297 297 296 294 294 296 298 298 297 296 295
233 243 245 248 239 222 244 258 251 251 259 262 262 265 265 259 250 243 241 240 239 238 238 237 236 234 229 224 223 221 218 223 224 216 216 221 221 229 243 252 260 265 266 266 265 265 267 269 271 277 284 290 291 288 282 278 278 279 283 287 289 290 291 291 293 294 292 291 290 290 291 292 292 294 296 296 295 296 297 298 297 295 292 291 289
229 237 239 241 232 220 239 254 252 253 259 260 258 260 261 259 254 246 243 242 240 239 238 238 236 232 226 224 224 219 214 217 216 212 217 220 217 225 240 251 260 264 264 264 265 266 268 270 274 280 286 289 288 284 281 278 279 282 286 289 291 292 293 295 297 298 295 293 293 292 293 291 290 292 293 293 293 293 294 294 293 291 290 289 288
221 226 228 228 221 218 230 242 247 252 257 260 260 259 257 259 256 246 243 243 242 241 241 240 238 232 225 223 223 215 211 214 213 215 220 217 215 224 237 250 260 261 262 264 265 266 268 270 274 281 287 287 282 278 279 279 279 282 285 287 288 289 291 292 292 291 289 290 291 290 290 289 288 290 292 292 291 291 290 290 290 290 290 290 290
212 216 216 212 205 206 219 231 240 249 255 259 260 260 258 257 253 247 245 246 244 243 242 240 238 230 220 219 219 215 218 222 218 219 220 215 218 229 238 250 261 262 262 264 264 266 269 273 280 287 288 283 277 276 280 281 281 284 286 288 289 291 292 292 291 290 288 286 285 286 289 292 293 293 293 293 292 292 291 290 290 291 291 291 291
198 204 206 203 197 195 207 223 235 244 250 253 256 260 259 256 252 247 247 248 245 240 238 237 235 226 218 217 216 218 230 234 222 219 217 217 225 236 242 252 265 268 268 269 267 269 272 277 285 289 283 275 276 281 284 283 284 287 288 290 292 292 293 292 294 296 293 289 289 293 297 299 300 298 295 291 288 289 292 292 290 291 291 290 290
188 193 195 193 192 192 202 218 230 238 242 243 247 252 252 256 256 249 246 246 242 235 232 231 228 222 218 217 217 226 240 236 221 217 218 220 229 240 246 252 263 272 276 275 270 267 271 281 289 287 276 273 279 284 286 285 288 290 290 292 292 292 294 295 295 294 291 291 295 299 302 303 303 302 300 296 292 294 297 297 293 289 288 289 290
180 184 184 185 186 186 193 211 221 225 230 235 238 239 245 256 262 254 248 244 238 232 229 227 223 217 214 216 224 236 238 228 219 218 220 224 233 244 248 252 266 278 279 271 268 272 277 284 287 278 271 275 281 284 285 288 290 291 290 290 289 289 293 294 291 287 288 291 294 295 297 299 300 301 302 302 301 300 300 300 297 291 288 289 292
175 176 174 174 176 179 188 204 211 213 221 231 236 240 248 258 264 260 250 242 237 233 228 224 221 215 212 218 227 230 224 219 220 220 222 229 240 248 248 256 273 281 273 262 271 283 286 283 279 274 272 277 282 285 288 290 291 291 289 287 286 289 292 292 289 289 291 292 292 294 295 295 296 298 297 297 296 295 294 293 291 288 288 290 292
167 166 163 162 169 179 186 194 203 213 223 231 238 245 253 260 267 262 247 235 233 231 224 222 221 218 218 224 224 220 219 222 226 226 228 236 248 252 254 262 273 276 272 270 277 280 276 267 270 278 283 285 287 290 292 292 291 289 287 286 287 290 292 292 290 290 291 291 293 296 297 296 298 298 296 294 293 292 291 289 287 287 288 289 290
159 159 160 164 168 176 183 190 208 226 232 232 237 244 249 258 264 254 234 219 220 222 219 219 220 217 222 227 221 218 222 227 231 231 232 243 254 256 259 265 271 275 279 282 276 268 258 252 265 279 288 291 293 293 292 292 291 288 288 289 290 291 290 289 288 288 288 290 293 295 296 298 301 299 297 296 294 292 290 289 290 291 290 290 291
159 161 167 174 177 180 187 197 219 239 237 222 225 232 237 243 237 218 202 197 204 210 210 211 210 210 219 224 219 218 225 231 233 234 240 249 255 256 259 266 272 274 277 276 268 260 260 265 276 288 294 294 294 293 292 292 291 288 289 290 288 287 287 288 289 288 288 290 293 295 297 298 299 297 296 296 295 293 294 295 297 297 296 297 297
166 174 182 191 191 192 196 197 210 230 217 197 207 206 196 197 193 187 188 193 198 201 201 201 200 200 205 209 210 215 226 234 236 239 245 250 251 253 259 264 267 265 257 255 260 266 274 283 292 297 296 294 293 292 291 291 290 290 291 288 285 287 290 291 288 284 287 290 291 293 295 295 295 295 295 296 298 300 302 302 302 302 302 304 305
186 193 194 196 192 190 195 194 190 197 189 173 175 172 170 173 178 184 191 195 196 197 199 201 200 198 197 202 213 222 229 234 237 240 248 253 252 251 249 247 250 254 251 256 270 282 290 294 294 292 291 290 290 291 290 290 289 288 284 282 287 293 293 288 284 286 289 291 291 293 294 294 294 294 296 300 304 306 308 307 305 306 309 310 308
198 196 192 190 182 176 181 179 172 171 164 153 156 166 169 172 180 186 189 192 197 199 200 203 203 201 205 220 231 230 227 228 232 241 252 257 254 245 237 231 239 255 266 275 285 292 294 292 289 288 288 288 290 291 291 289 287 283 282 285 292 297 291 287 293 298 298 297 296 295 294 295 297 300 303 306 309 310 309 307 306 309 312 310 306
187 185 182 176 168 164 167 166 162 160 157 153 159 165 168 174 184 190 190 193 199 201 198 200 205 211 222 229 225 221 220 224 236 246 248 245 238 231 228 232 247 271 283 287 291 293 291 288 287 285 285 286 287 286 287 287 286 286 290 291 287 285 288 293 299 302 301 301 300 298 299 302 304 306 307 308 308 308 307 306 307 310 313 311 308
176 174 167 158 155 157 159 162 161 157 157 162 164 164 168 177 186 194 197 198 201 202 200 206 216 223 225 220 214 220 229 233 238 242 235 226 220 219 222 236 259 274 277 281 288 291 289 288 287 285 283 285 285 281 282 286 288 289 290 282 276 285 296 301 305 305 303 302 303 305 306 307 305 305 306 306 306 308 308 308 310 312 312 311 310
168 165 155 149 152 156 155 158 163 161 165 175 177 175 178 183 186 196 201 198 196 196 199 211 221 220 217 217 222 229 232 230 230 231 225 219 215 214 219 238 260 270 273 278 283 284 282 285 289 287 282 281 280 276 277 282 284 286 288 284 281 286 294 298 302 301 298 299 305 308 307 304 302 305 307 307 309 311 312 313 315 315 314 313 313
156 154 148 146 150 151 151 160 167 165 169 181 182 176 176 181 186 194 196 193 196 204 208 214 217 209 204 222 229 221 219 227 229 220 213 213 215 222 233 244 259 273 281 282 280 274 268 271 279 279 277 278 278 276 276 281 281 280 285 288 284 282 285 290 292 293 296 302 307 307 303 301 303 306 307 308 312 315 317 317 317 316 316 316 316
150 147 145 150 154 150 153 168 172 167 168 174 174 171 174 183 192 198 200 202 208 213 215 220 221 208 199 207 214 213 216 222 217 208 210 218 225 234 243 253 266 278 283 281 275 268 261 266 270 269 269 273 276 277 280 283 282 281 284 284 280 281 287 289 289 295 302 307 306 301 299 302 303 305 308 311 315 317 319 320 318 317 318 319 321
148 144 148 160 161 153 158 169 169 168 173 173 171 178 191 202 210 214 212 209 209 212 218 228 226 213 207 211 214 217 220 216 210 211 220 228 234 239 248 260 273 280 282 277 269 259 255 263 267 265 266 271 276 280 281 280 281 283 284 279 277 283 284 282 290 301 306 305 299 296 300 303 303 307 311 313 315 317 319 320 322 322 322 324 329
142 148 156 164 163 158 165 169 165 169 178 175 176 192 205 213 220 217 205 196 199 213 228 235 229 216 215 219 220 223 225 220 216 221 228 234 239 246 255 266 275 280 278 273 265 253 250 257 263 268 270 272 275 279 279 278 278 279 278 277 280 284 284 289 300 307 306 301 300 302 303 303 305 310 313 313 315 317 318 321 325 325 324 330 340
147 158 162 165 163 163 168 170 166 168 175 173 177 188 191 191 205 205 194 190 209 241 242 236 231 225 223 225 228 230 228 224 223 228 234 239 244 251 260 269 277 279 275 267 252 238 246 261 268 270 269 268 271 275 274 273 274 274 274 278 281 283 289 299 308 307 297 297 302 300 299 305 310 313 314 315 316 317 318 322 325 324 327 337 347
152 159 161 160 160 163 168 169 166 168 174 176 176 178 177 178 187 194 195 203 241 265 258 242 233 232 232 232 232 229 224 225 230 234 239 243 247 254 264 271 275 276 273 262 242 232 251 266 266 264 263 263 266 269 269 269 271 271 273 278 284 288 294 301 301 291 289 296 299 297 303 314 318 316 316 316 317 317 320 323 325 324 328 336 346
154 159 162 158 154 156 162 167 167 169 170 168 166 170 178 183 185 193 206 216 231 251 253 239 224 224 227 228 230 230 229 232 238 241 243 245 248 254 261 264 263 269 272 262 249 246 256 260 257 257 260 261 262 264 266 266 267 267 270 277 284 289 292 289 284 285 294 302 300 303 314 321 319 318 319 318 318 319 320 323 325 326 325 329 342
158 161 163 162 156 156 164 169 170 168 164 164 168 174 181 190 195 203 218 220 212 222 235 229 218 218 222 224 230 238 241 244 246 246 245 244 249 256 254 230 225 251 256 252 252 252 251 251 253 254 257 260 262 263 262 261 263 269 277 286 291 289 281 275 276 285 299 308 306 309 319 322 320 321 322 319 319 322 322 323 326 326 325 328 337
165 164 167 174 174 166 169 172 172 169 168 172 181 185 189 208 220 219 219 216 208 210 221 223 218 222 231 237 241 247 251 250 246 243 241 240 246 255 248 219 225 247 249 248 252 251 248 252 257 255 255 259 259 256 256 259 263 269 278 288 293 289 280 280 288 297 310 318 313 313 321 324 322 323 323 321 321 322 322 326 328 327 328 331 333
173 173 184 198 189 177 179 181 178 176 177 180 190 198 203 213 221 216 208 206 205 204 213 223 225 231 244 253 255 253 251 245 238 237 240 241 243 243 235 228 237 243 244 249 251 245 242 248 251 247 246 247 245 247 254 260 264 272 279 282 279 275 276 281 287 295 305 310 310 316 326 327 324 327 327 323 322 324 325 328 330 329 329 331 331
181 190 219 207 190 185 186 185 180 179 181 181 183 191 193 191 192 193 191 196 198 197 207 222 225 230 247 259 260 253 247 240 233 232 235 235 231 226 221 226 236 241 246 250 245 235 232 232 232 232 235 237 241 250 260 265 268 274 279 271 250 249 263 271 277 286 297 306 314 325 329 325 326 330 328 324 327 331 330 328 329 331 331 331 332
190 201 210 197 189 182 176 172 171 174 177 174 169 172 176 175 179 184 189 197 203 205 214 225 223 228 249 260 253 242 239 234 225 221 219 216 217 220 221 227 235 241 248 248 241 232 225 221 225 232 236 241 249 257 265 271 272 266 262 255 245 247 260 271 280 290 299 308 318 324 323 323 330 334 331 331 334 334 330 329 330 334 334 333 334
211 220 210 188 180 171 163 163 166 167 165 160 157 161 166 169 179 192 198 203 211 220 236 246 241 243 256 254 231 215 217 215 209 207 209 212 217 219 221 230 239 242 245 243 238 231 224 222 232 240 240 243 252 258 264 270 268 253 243 244 243 245 253 265 278 291 303 310 315 320 324 331 338 336 331 331 333 331 330 333 335 336 338 338 339
222 222 202 182 174 166 159 159 160 158 155 154 160 171 182 188 200 217 225 232 241 250 257 254 244 245 252 239 213 203 204 205 206 211 215 218 222 223 224 235 244 245 243 238 234 234 236 237 239 239 240 249 259 265 266 266 258 239 232 236 240 246 254 262 274 288 300 305 309 318 327 333 336 333 327 327 330 332 333 336 337 340 342 342 343
208 199 187 179 173 166 160 160 161 159 162 179 203 223 235 239 239 238 240 244 250 255 251 239 232 241 243 224 206 203 205 206 210 217 217 214 218 227 233 237 241 243 244 241 240 246 249 242 233 234 245 259 271 274 270 264 250 234 231 235 240 249 259 267 277 287 295 301 308 318 327 330 331 330 327 326 330 334 335 336 339 343 344 344 346
189 185 181 174 169 166 164 164 169 179 197 219 231 240 247 249 242 234 231 231 232 230 226 221 223 233 234 216 205 206 209 212 218 224 219 212 216 226 232 233 239 247 250 247 252 260 255 233 224 238 253 267 277 279 272 259 245 235 235 237 240 252 263 271 280 287 293 300 308 314 321 326 328 325 323 327 333 335 334 337 341 342 344 346 347
160 167 169 166 164 167 169 172 189 210 223 226 226 227 229 224 215 207 202 204 215 228 235 235 229 229 226 215 207 210 216 222 228 231 226 221 222 223 226 234 247 259 259 252 262 271 263 233 222 234 250 264 275 278 271 258 247 242 242 242 245 255 266 273 282 288 291 297 305 310 314 323 328 324 323 330 335 332 333 339 342 342 345 348 346
157 162 168 169 170 175 185 203 221 229 221 192 170 165 173 182 186 189 197 204 209 218 234 246 244 238 234 228 223 223 227 231 233 233 231 227 222 218 226 240 253 261 259 260 271 277 264 241 231 234 245 263 275 275 266 257 250 246 247 249 252 260 270 277 282 287 289 292 298 301 307 317 325 323 322 328 332 332 335 341 342 342 348 350 348
173 181 187 191 205 224 230 225 218 201 171 161 163 164 168 172 176 181 196 208 211 220 237 246 246 244 244 242 239 240 239 237 236 235 232 226 217 217 229 242 248 244 245 263 279 279 259 243 236 237 249 266 275 272 263 256 252 250 252 254 258 265 274 280 283 287 290 292 292 296 305 315 318 317 319 325 331 335 338 340 342 345 351 352 350
182 184 181 181 193 199 187 173 169 167 165 165 165 164 165 171 177 184 199 225 239 242 245 247 246 247 249 248 246 246 244 240 239 235 227 219 216 220 229 238 242 238 237 251 271 275 262 246 239 242 253 266 273 270 262 255 252 252 254 258 263 271 278 284 288 291 292 290 286 288 299 307 309 314 322 327 331 333 334 337 345 351 353 352 353
168 172 168 161 157 157 157 158 162 165 164 164 164 166 169 180 196 213 229 244 251 252 252 252 250 248 248 247 246 245 242 239 238 234 225 219 219 222 226 234 243 246 239 238 249 260 258 247 242 246 253 262 268 268 261 253 251 253 255 261 270 277 282 289 295 296 295 289 280 275 283 296 302 311 320 322 323 326 331 339 351 356 353 353 356
151 157 159 156 153 154 158 160 162 164 165 167 170 175 181 193 211 230 241 247 253 256 257 257 256 253 252 249 246 244 240 238 236 232 225 221 221 223 225 232 243 251 248 239 239 242 241 239 239 243 250 260 267 267 257 250 250 253 258 267 275 282 288 296 300 299 295 286 274 266 274 294 304 311 315 311 310 318 331 342 351 355 352 353 359
Height
1503 1505 1506 1509 1511 1514 1517 1519 1522 1523 1524 1526 1528 1529 1531 1533 1536 1537 1538 1540 1541 1541 1542 1543 1545 1546 1547 1548 1549 1550 1550 1550 1551 1552 1553 1553 1554 1555 1556 1556 1556 1556 1556 1556 1556 1556 1556 1557 1557 1557 1557 1557 1556 1556 1556 1556 1556 1555 1555 1554 1554 1553 1552 1552 1550 1548 1546 1546 1545 1544 1543 1542 1540 1539 1538 1536 1535 1534 1533 1531 1530 1529 1528 1527 1526
1499 1501 1503 1505 1508 1511 1514 1516 1518 1519 1521 1522 1524 1525 1527 1530 1532 1534 1536 1538 1539 1539 1540 1541 1542 1543 1545 1547 1548 1549 1549 1549 1550 1551 1551 1552 1553 1553 1554 1554 1554 1554 1554 1554 1554 1554 1554 1555 1555 1555 1555 1555 1554 1554 1555 1555 1555 1554 1553 1553 1552 1551 1551 1549 1548 1546 1545 1544 1543 1542 1540 1539 1538 1536 1535 1534 1532 1531 1530 1528 1527 1526 1525 1523 1522
1495 1497 1499 1502 1505 1508 1510 1511 1513 1515 1517 1518 1520 1522 1524 1527 1530 1533 1536 1537 1538 1539 1539 1540 1540 1541 1542 1544 1545 1546 1547 1548 1549 1549 1550 1550 1551 1552 1552 1552 1552 1553 1553 1553 1553 1553 1553 1553 1553 1553 1553 1553 1552 1552 1553 1553 1552 1552 1551 1551 1550 1549 1548 1547 1546 1544 1543 1542 1541 1539 1538 1537 1535 1533 1532 1531 1529 1528 1526 1525 1524 1523 1522 1520 1519
1492 1493 1496 1499 1502 1505 1506 1506 1508 1511 1513 1515 1517 1519 1523 1526 1530 1534 1537 1539 1539 1538 1538 1539 1539 1539 1540 1541 1541 1542 1543 1545 1547 1548 1548 1549 1549 1550 1550 1550 1550 1551 1551 1551 1551 1552 1552 1551 1551 1551 1552 1551 1551 1550 1550 1550 1550 1550 1549 1549 1548 1547 1546 1545 1543 1542 1540 1539 1538 1537 1535 1533 1532 1530 1529 1527 1526 1524 1523 1521 1520 1519 1518 1517 1516
1489 1490 1492 1496 1498 1499 1500 1501 1504 1506 1508 1511 1515 1520 1525 1529 1532 1535 1537 1538 1537 1536 1535 1536 1536 1535 1536 1538 1539 1539 1539 1541 1544 1546 1546 1546 1547 1548 1548 1548 1548 1548 1548 1549 1549 1549 1549 1549 1549 1549 1549 1549 1548 1548 1548 1548 1548 1547 1547 1547 1546 1545 1543 1542 1541 1539 1538 1536 1535 1534 1532 1531 1529 1527 1526 1524 1522 1521 1519 1518 1517 1515 1514 1513 1512
1485 1487 1489 1491 1492 1494 1496 1498 1500 1503 1507 1512 1517 1522 1526 1527 1528 1530 1532 1532 1531 1530 1529 1529 1530 1531 1531 1532 1535 1537 1537 1537 1539 1542 1543 1544 1545 1546 1546 1546 1546 1546 1546 1546 1546 1546 1546 1546 1546 1547 1546 1546 1545 1545 1545 1545 1545 1545 1545 1544 1544 1542 1541 1540 1538 1537 1535 1534 1532 1530 1529 1528 1526 1525 1523 1522 1520 1518 1516 1515 1514 1513 1512 1511 1509
1482 1484 1485 1486 1488 1489 1492 1495 1497 1501 1507 1510 1511 1516 1520 1522 1523 1525 1526 1526 1524 1524 1523 1522 1523 1525 1526 1527 1528 1531 1533 1534 1535 1537 1540 1542 1543 1543 1544 1544 1544 1544 1544 1544 1544 1544 1544 1544 1544 1544 1543 1543 1542 1542 1543 1543 1543 1543 1542 1542 1541 1540 1539 1538 1536 1534 1533 1531 1529 1527 1526 1525 1524 1522 1521 1519 1518 1516 1514 1512 1511 1510 1509 1508 1506
1478 1480 1482 1483 1484 1486 1490 1493 1494 1498 1502 1500 1503 1512 1518 1517 1517 1516 1515 1514 1513 1514 1514 1515 1517 1520 1521 1522 1523 1525 1527 1528 1529 1532 1535 1539 1541 1541 1542 1542 1543 1543 1542 1542 1542 1541 1541 1541 1541 1541 1541 1540 1540 1540 1540 1540 1540 1540 1540 1540 1539 1538 1537 1535 1533 1532 1530 1528 1527 1525 1523 1522 1521 1519 1518 1517 1515 1513 1512 1510 1508 1507 1506 1504 1503
1474 1476 1478 1479 1481 1484 1487 1489 1490 1494 1497 1495 1500 1509 1511 1506 1504 1503 1502 1504 1506 1508 1509 1511 1515 1517 1517 1518 1519 1520 1521 1521 1523 1527 1531 1534 1537 1538 1539 1540 1541 1541 1540 1539 1539 1539 1538 1538 1538 1538 1538 1538 1537 1537 1537 1537 1537 1537 1537 1537 1537 1535 1534 1532 1530 1529 1527 1525 1524 1522 1520 1519 1518 1517 1516 1515 1512 1510 1509 1507 1505 1503 1502 1500 1499
1470 1472 1474 1475 1479 1482 1483 1484 1486 1490 1492 1492 1495 1499 1498 1495 1495 1496 1497 1500 1503 1505 1505 1507 1510 1512 1512 1513 1513 1515 1516 1516 1518 1523 1526 1529 1533 1535 1536 1537 1538 1537 1537 1536 1536 1536 1536 1536 1536 1535 1535 1535 1535 1534 1534 1533 1533 1533 1533 1534 1533 1532 1531 1529 1528 1526 1524 1522 1521 1519 1517 1515 1515 1514 1513 1511 1509 1507 1505 1504 1502 1500 1499 1496 1494
1466 1468 1471 1473 1476 1479 1479 1481 1484 1485 1487 1489 1489 1490 1490 1491 1492 1493 1494 1497 1499 1499 1500 1501 1504 1506 1506 1507 1508 1510 1512 1512 1514 1518 1520 1524 1528 1531 1532 1534 1534 1534 1534 1533 1533 1533 1533 1533 1533 1533 1532 1531 1531 1531 1530 1530 1529 1529 1529 1529 1529 1529 1527 1526 1524 1523 1521 1519 1518 1517 1515 1512 1511 1511 1509 1507 1506 1504 1502 1500 1499 1497 1495 1493 1490
1463 1465 1468 1471 1473 1475 1476 1477 1480 1480 1482 1484 1485 1485 1486 1487 1488 1489 1490 1492 1493 1494 1495 1496 1499 1501 1502 1502 1503 1506 1508 1509 1512 1515 1516 1518 1523 1527 1529 1530 1530 1531 1530 1530 1530 1530 1530 1530 1530 1530 1529 1528 1528 1527 1526 1525 1525 1525 1526 1526 1525 1525 1524 1522 1521 1519 1518 1516 1514 1513 1512 1510 1508 1507 1506 1504 1502 1500 1498 1497 1496 1494 1491 1489 1487
1461 1462 1465 1468 1470 1472 1473 1473 1475 1476 1478 1480 1482 1482 1483 1483 1483 1485 1486 1487 1488 1490 1491 1492 1494 1497 1498 1499 1500 1502 1504 1506 1510 1513 1514 1516 1520 1523 1525 1526 1527 1528 1527 1527 1528 1527 1527 1527 1527 1526 1525 1524 1524 1523 1522 1522 1521 1521 1522 1521 1521 1521 1520 1518 1517 1515 1513 1512 1510 1509 1508 1507 1505 1503 1503 1501 1498 1496 1494 1493 1492 1490 1488 1486 1483
1458 1460 1462 1464 1466 1469 1469 1470 1472 1473 1474 1476 1478 1479 1480 1480 1481 1482 1482 1483 1484 1485 1486 1488 1489 1492 1494 1497 1499 1500 1501 1505 1508 1510 1512 1514 1517 1519 1522 1523 1524 1524 1524 1524 1524 1524 1524 1524 1523 1523 1522 1521 1520 1520 1519 1519 1518 1518 1518 1517 1517 1517 1516 1514 1513 1511 1509 1507 1506 1504 1504 1503 1501 1499 1499 1497 1495 1493 1491 1489 1487 1485 1483 1481 1478
1455 1457 1459 1461 1463 1465 1466 1467 1468 1469 1471 1472 1474 1476 1477 1477 1478 1479 1479 1480 1480 1481 1483 1484 1486 1488 1492 1495 1498 1499 1500 1504 1508 1509 1510 1513 1515 1516 1518 1520 1521 1521 1520 1521 1521 1520 1520 1519 1519 1519 1519 1518 1517 1517 1516 1516 1515 1515 1515 1514 1514 1514 1513 1512 1510 1509 1507 1504 1503 1501 1500 1499 1498 1496 1495 1493 1491 1488 1486 1484 1483 1480 1478 1476 1474
1452 1454 1457 1459 1460 1461 1462 1464 1466 1467 1468 1469 1470 1471 1473 1474 1475 1476 1476 1477 1477 1478 1480 1481 1482 1485 1490 1492 1494 1496 1499 1502 1506 1507 1509 1511 1512 1513 1515 1517 1518 1518 1518 1517 1517 1516 1516 1516 1515 1515 1516 1515 1514 1514 1514 1513 1512 1512 1511 1511 1511 1510 1510 1508 1506 1505 1504 1501 1500 1498 1497 1495 1494 1492 1491 1489 1486 1484 1482 1480 1478 1477 1475 1473 1471
1450 1452 1454 1456 1458 1458 1460 1462 1463 1464 1465 1466 1466 1467 1469 1470 1471 1472 1473 1473 1474 1475 1476 1476 1478 1483 1487 1489 1492 1495 1497 1500 1503 1505 1507 1509 1510 1511 1512 1513 1515 1515 1515 1515 1515 1513 1513 1513 1512 1512 1512 1511 1511 1511 1511 1510 1509 1509 1508 1507 1507 1506 1506 1505 1503 1501 1499 1497 1496 1494 1492 1491 1489 1488 1487 1485 1483 1481 1479 1477 1476 1475 1473 1470 1467
1448 1450 1452 1454 1455 1456 1458 1459 1460 1462 1462 1463 1464 1465 1466 1467 1468 1469 1470 1470 1471 1473 1474 1474 1477 1481 1484 1486 1490 1493 1495 1497 1500 1503 1504 1506 1507 1508 1509 1510 1511 1512 1512 1513 1513 1511 1510 1510 1510 1509 1509 1508 1508 1508 1508 1507 1506 1506 1505 1504 1503 1503 1503 1502 1501 1499 1496 1494 1492 1490 1488 1486 1485 1483 1482 1481 1480 1479 1477 1474 1473 1472 1470 1468 1465
1446 1448 1450 1451 1453 1454 1455 1457 1458 1459 1459 1460 1461 1463 1464 1464 1465 1467 1467 1468 1469 1470 1471 1474 1477 1480 1482 1486 1489 1492 1493 1495 1498 1500 1502 1503 1504 1506 1507 1509 1510 1510 1510 1510 1510 1509 1507 1507 1507 1507 1507 1506 1506 1505 1504 1504 1503 1503 1502 1501 1501 1500 1499 1499 1498 1496 1494 1491 1490 1487 1485 1484 1482 1480 1479 1478 1477 1476 1474 1472 1471 1470 1467 1465 1463
1445 1447 1448 1449 1450 1451 1452 1454 1455 1456 1457 1458 1459 1461 1462 1462 1463 1464 1465 1466 1467 1469 1471 1474 1477 1479 1482 1485 1488 1490 1491 1493 1495 1497 1499 1501 1503 1504 1506 1507 1508 1507 1506 1507 1507 1505 1504 1504 1504 1504 1504 1503 1503 1502 1501 1501 1501 1500 1499 1499 1498 1497 1496 1495 1494 1492 1490 1488 1486 1484 1483 1481 1480 1479 1478 1477 1476 1474 1473 1472 1470 1468 1465 1462 1460
1444 1446 1446 1447 1448 1449 1450 1452 1452 1453 1454 1455 1456 1458 1459 1460 1461 1461 1463 1465 1466 1469 1472 1474 1477 1479 1482 1484 1486 1488 1490 1492 1493 1496 1498 1500 1501 1502 1503 1504 1504 1503 1503 1503 1503 1502 1501 1502 1501 1501 1501 1500 1499 1499 1498 1498 1498 1497 1496 1495 1495 1494 1493 1492 1491 1489 1487 1486 1484 1482 1480 1479 1478 1477 1475 1474 1473 1472 1471 1470 1467 1465 1463 1460 1457
1444 1444 1445 1445 1446 1447 1448 1449 1449 1450 1451 1452 1454 1455 1457 1458 1458 1459 1462 1464 1465 1468 1471 1474 1476 1478 1480 1481 1484 1486 1488 1490 1492 1494 1497 1499 1499 1500 1500 1500 1500 1500 1500 1500 1500 1500 1500 1500 1499 1498 1497 1497 1496 1496 1495 1495 1495 1494 1493 1492 1491 1491 1490 1489 1488 1487 1486 1484 1482 1480 1478 1476 1475 1474 1473 1471 1470 1469 1467 1466 1464 1461 1459 1457 1454
1443 1443 1444 1444 1444 1445 1446 1446 1447 1448 1449 1451 1452 1453 1455 1456 1456 1458 1461 1463 1465 1467 1470 1472 1474 1476 1477 1479 1481 1484 1487 1489 1491 1493 1495 1496 1497 1497 1497 1497 1497 1497 1497 1498 1499 1499 1498 1497 1496 1495 1495 1494 1493 1493 1493 1492 1492 1491 1490 1490 1489 1488 1487 1486 1485 1485 1484 1482 1479 1477 1476 1474 1473 1472 1470 1468 1467 1465 1463 1461 1459 1456 1453 1451 1448
1442 1443 1443 1443 1443 1443 1444 1445 1445 1446 1448 1450 1451 1452 1453 1454 1456 1458 1461 1463 1466 1467 1469 1470 1472 1474 1476 1478 1480 1482 1485 1487 1488 1490 1492 1493 1494 1494 1494 1494 1494 1495 1496 1497 1497 1497 1496 1494 1493 1492 1492 1491 1491 1490 1490 1489 1489 1488 1487 1487 1487 1486 1485 1484 1483 1483 1481 1479 1477 1475 1474 1472 1471 1469 1467 1465 1463 1460 1458 1456 1453 1451 1448 1445 1443
1440 1440 1441 1441 1440 1441 1442 1443 1444 1445 1447 1449 1450 1451 1453 1454 1456 1459 1461 1464 1466 1467 1468 1469 1471 1473 1475 1477 1478 1481 1483 1484 1486 1488 1489 1490 1490 1490 1491 1492 1493 1494 1494 1495 1494 1493 1493 1492 1490 1490 1489 1488 1488 1487 1487 1486 1486 1486 1485 1485 1484 1483 1482 1482 1481 1480 1478 1476 1475 1473 1471 1470 1468 1466 1464 1461 1459 1456 1454 1451 1449 1446 1444 1441 1438
1437 1438 1437 1437 1438 1439 1440 1442 1443 1444 1446 1448 1450 1451 1452 1454 1457 1459 1462 1464 1466 1467 1468 1469 1470 1472 1473 1475 1476 1478 1480 1482 1483 1485 1486 1486 1487 1487 1489 1490 1491 1492 1492 1492 1491 1491 1490 1489 1488 1487 1486 1486 1485 1485 1484 1484 1483 1483 1483 1482 1481 1481 1481 1480 1478 1476 1475 1474 1472 1470 1469 1467 1465 1463 1460 1458 1455 1453 1451 1448 1446 1443 1441 1438 1435
1434 1435 1435 1435 1436 1438 1439 1441 1442 1444 1445 1447 1449 1450 1452 1455 1457 1459 1462 1464 1465 1466 1467 1468 1469 1470 1471 1472 1474 1476 1477 1479 1480 1481 1482 1483 1484 1485 1487 1488 1489 1489 1490 1490 1489 1488 1488 1487 1486 1485 1484 1483 1483 1482 1482 1481 1481 1481 1481 1481 1480 1479 1478 1477 1475 1473 1472 1471 1469 1468 1466 1464 1462 1459 1457 1455 1453 1451 1449 1446 1443 1440 1438 1436 1433
1431 1432 1432 1434 1435 1437 1439 1441 1442 1444 1446 1448 1449 1450 1452 1455 1457 1459 1461 1462 1463 1465 1466 1467 1468 1469 1470 1471 1473 1474 1475 1477 1478 1479 1479 1480 1482 1483 1485 1486 1487 1488 1488 1488 1487 1486 1485 1484 1484 1483 1482 1481 1481 1481 1481 1481 1481 1481 1481 1481 1480 1478 1475 1474 1472 1471 1469 1468 1467 1465 1463 1461 1459 1457 1455 1453 1451 1449 1447 1444 1441 1439 1437 1435 1431
1429 1431 1431 1433 1435 1436 1439 1441 1443 1445 1446 1447 1448 1450 1452 1454 1457 1458 1459 1460 1462 1464 1465 1466 1467 1468 1469 1471 1471 1472 1474 1475 1476 1477 1478 1479 1480 1481 1483 1484 1485 1486 1486 1486 1485 1485 1484 1483 1483 1482 1482 1481 1481 1481 1481 1481 1481 1480 1480 1479 1478 1476 1474 1472 1471 1469 1468 1466 1465 1463 1461 1459 1457 1455 1453 1451 1449 1447 1445 1442 1440 1437 1435 1433 1430
1429 1431 1432 1433 1435 1436 1439 1442 1444 1446 1446 1446 1448 1449 1451 1453 1455 1456 1458 1460 1461 1463 1464 1465 1466 1467 1468 1469 1470 1471 1473 1473 1474 1475 1476 1477 1479 1480 1481 1482 1483 1483 1483 1483 1483 1483 1483 1483 1483 1482 1481 1481 1480 1480 1480 1480 1479 1479 1478 1478 1477 1474 1472 1471 1469 1468 1466 1464 1463 1461 1459 1458 1456 1454 1452 1450 1447 1445 1443 1440 1438 1436 1434 1432 1429
1430 1431 1433 1434 1435 1437 1440 1442 1444 1445 1446 1446 1448 1449 1451 1453 1455 1456 1457 1459 1460 1462 1463 1464 1465 1466 1467 1468 1469 1470 1471 1472 1473 1474 1475 1476 1477 1478 1479 1480 1480 1480 1480 1480 1480 1481 1481 1481 1481 1480 1480 1479 1479 1479 1478 1478 1478 1477 1477 1476 1475 1473 1471 1469 1467 1466 1464 1462 1461 1459 1458 1456 1454 1452 1450 1448 1445 1443 1441 1439 1438 1436 1433 1431 1428
1429 1431 1433 1434 1435 1437 1440 1442 1443 1445 1446 1446 1448 1449 1451 1452 1454 1455 1457 1458 1460 1462 1463 1463 1464 1465 1465 1467 1468 1469 1470 1471 1472 1473 1474 1475 1476 1476 1477 1478 1478 1478 1478 1478 1478 1478 1479 1479 1479 1478 1478 1478 1477 1477 1477 1476 1476 1476 1475 1474 1473 1471 1469 1467 1465 1463 1462 1460 1459 1458 1456 1455 1453 1451 1449 1447 1445 1442 1440 1438 1437 1434 1432 1429 1426
1429 1431 1433 1434 1435 1437 1440 1441 1443 1445 1446 1447 1448 1449 1450 1452 1453 1454 1456 1458 1460 1461 1462 1463 1463 1464 1464 1465 1466 1467 1468 1469 1470 1471 1472 1473 1474 1474 1475 1475 1475 1475 1475 1475 1475 1476 1477 1477 1477 1477 1477 1476 1476 1476 1475 1475 1474 1474 1474 1472 1470 1468 1467 1464 1462 1461 1460 1458 1457 1456 1455 1454 1452 1450 1448 1446 1444 1442 1440 1437 1435 1433 1431 1427 1424
1429 1431 1433 1434 1436 1437 1439 1440 1442 1444 1445 1447 1448 1448 1450 1451 1452 1453 1455 1458 1459 1460 1461 1462 1462 1463 1463 1464 1465 1466 1467 1468 1468 1469 1470 1471 1471 1472 1472 1472 1472 1472 1473 1473 1473 1474 1475 1476 1475 1475 1475 1475 1474 1474 1474 1473 1473 1472 1471 1470 1468 1466 1464 1461 1460 1459 1458 1457 1456 1456 1454 1453 1451 1449 1447 1445 1443 1441 1439 1437 1435 1432 1430 1426 1422
1429 1431 1433 1435 1436 1437 1438 1439 1441 1442 1444 1445 1446 1448 1449 1451 1452 1454 1456 1457 1458 1458 1459 1460 1460 1461 1462 1462 1463 1464 1465 1466 1467 1467 1468 1469 1469 1469 1470 1470 1470 1470 1470 1471 1471 1472 1473 1474 1473 1473 1473 1473 1472 1472 1472 1471 1471 1470 1469 1467 1465 1463 1462 1460 1459 1458 1457 1456 1456 1454 1453 1451 1449 1448 1446 1444 1442 1440 1438 1436 1434 1431 1428 1425 1422
1430 1432 1434 1435 1437 1437 1438 1439 1440 1441 1443 1444 1445 1447 1449 1450 1452 1454 1455 1457 1457 1457 1457 1458 1459 1459 1460 1460 1461 1462 1463 1464 1465 1465 1466 1466 1466 1467 1468 1468 1469 1469 1470 1470 1470 1471 1472 1472 1471 1471 1471 1471 1470 1470 1470 1469 1469 1467 1465 1464 1462 1461 1460 1459 1458 1457 1455 1455 1454 1453 1451 1450 1448 1447 1445 1443 1442 1440 1438 1435 1433 1431 1428 1425 1422
1431 1433 1434 1435 1436 1437 1437 1438 1439 1441 1442 1443 1445 1447 1448 1450 1452 1453 1454 1455 1456 1456 1456 1456 1457 1457 1458 1459 1460 1461 1461 1462 1463 1463 1464 1464 1464 1465 1466 1467 1468 1469 1470 1469 1469 1470 1470 1469 1469 1469 1469 1469 1469 1469 1468 1467 1466 1464 1462 1460 1459 1459 1458 1457 1456 1455 1454 1453 1453 1452 1450 1449 1447 1446 1444 1443 1441 1439 1437 1435 1432 1430 1427 1425 1421
1431 1432 1433 1434 1435 1436 1437 1438 1439 1440 1441 1442 1444 1446 1447 1449 1450 1452 1453 1454 1454 1455 1455 1455 1456 1456 1457 1457 1458 1459 1459 1460 1460 1461 1461 1462 1463 1463 1464 1465 1466 1467 1468 1468 1468 1468 1468 1468 1467 1467 1467 1467 1467 1467 1465 1464 1463 1461 1460 1458 1458 1457 1456 1455 1455 1454 1453 1452 1452 1451 1449 1448 1447 1445 1444 1442 1440 1438 1436 1434 1432 1429 1427 1424 1422
1429 1431 1432 1433 1434 1435 1436 1437 1438 1439 1440 1442 1443 1445 1446 1448 1449 1450 1452 1452 1453 1454 1454 1454 1455 1455 1455 1456 1457 1457 1457 1458 1458 1459 1460 1461 1461 1462 1462 1464 1465 1465 1466 1466 1466 1466 1465 1465 1465 1465 1465 1464 1464 1463 1462 1461 1460 1459 1457 1457 1457 1456 1455 1455 1454 1453 1452 1452 1451 1450 1448 1447 1446 1444 1443 1442 1440 1438 1435 1433 1431 1429 1426 1424 1422
1429 1430 1431 1432 1433 1434 1435 1436 1437 1439 1440 1442 1443 1444 1445 1447 1448 1450 1451 1451 1452 1453 1453 1454 1454 1454 1454 1454 1455 1455 1455 1456 1456 1457 1458 1459 1459 1460 1461 1462 1463 1463 1464 1464 1464 1463 1463 1462 1462 1462 1461 1460 1460 1459 1459 1458 1457 1456 1455 1455 1455 1455 1455 1454 1453 1452 1452 1451 1450 1448 1447 1446 1445 1444 1442 1441 1439 1437 1435 1433 1431 1429 1426 1424 1422
1427 1428 1429 1431 1432 1433 1434 1436 1437 1438 1440 1441 1443 1444 1445 1446 1448 1449 1450 1451 1451 1452 1452 1452 1453 1452 1451 1451 1452 1453 1454 1454 1455 1456 1457 1458 1459 1459 1460 1461 1461 1462 1462 1462 1462 1461 1460 1460 1459 1459 1458 1457 1457 1457 1456 1455 1455 1455 1454 1454 1454 1454 1453 1453 1452 1451 1450 1449 1448 1448 1447 1446 1444 1443 1441 1440 1438 1436 1435 1433 1431 1429 1426 1424 1422
1426 1427 1429 1430 1431 1433 1435 1436 1437 1438 1439 1441 1442 1444 1445 1446 1447 1448 1449 1449 1450 1450 1450 1450 1451 1450 1449 1449 1449 1451 1452 1453 1454 1455 1456 1457 1457 1458 1458 1459 1459 1460 1460 1460 1459 1458 1458 1457 1457 1456 1456 1456 1455 1455 1454 1454 1453 1453 1453 1453 1453 1453 1452 1452 1451 1450 1449 1448 1448 1446 1445 1444 1443 1442 1441 1439 1437 1436 1434 1433 1431 1429 1426 1424 1422
1425 1426 1428 1430 1431 1432 1434 1435 1436 1437 1439 1440 1441 1442 1443 1444 1446 1447 1447 1447 1448 1448 1448 1448 1448 1447 1447 1447 1448 1449 1450 1452 1453 1454 1454 1455 1456 1456 1456 1457 1458 1458 1458 1458 1457 1456 1455 1455 1455 1454 1454 1453 1453 1452 1452 1452 1451 1451 1452 1452 1451 1451 1451 1450 1450 1449 1448 1447 1446 1445 1444 1443 1442 1442 1441 1439 1437 1435 1434 1432 1431 1429 1426 1424 1422
1423 1425 1427 1430 1431 1432 1433 1433 1434 1436 1437 1438 1439 1440 1441 1443 1444 1446 1446 1445 1445 1445 1446 1446 1446 1446 1445 1445 1446 1447 1448 1450 1451 1452 1452 1453 1454 1454 1455 1456 1456 1456 1455 1454 1454 1453 1453 1453 1453 1453 1452 1451 1451 1450 1450 1450 1450 1450 1450 1450 1450 1450 1449 1449 1448 1447 1447 1446 1445 1444 1443 1443 1442 1441 1440 1438 1436 1435 1434 1432 1431 1428 1426 1424 1422
1423 1424 1426 1429 1431 1432 1432 1433 1434 1435 1435 1436 1437 1438 1439 1441 1442 1443 1444 1444 1443 1443 1444 1444 1445 1445 1444 1444 1445 1446 1447 1448 1449 1449 1450 1451 1451 1452 1453 1454 1454 1453 1452 1452 1451 1451 1451 1451 1451 1450 1450 1449 1449 1449 1449 1449 1448 1448 1448 1449 1449 1448 1448 1447 1447 1446 1445 1445 1444 1443 1443 1442 1441 1441 1439 1437 1436 1435 1433 1432 1430 1429 1426 1424 1423
1422 1423 1425 1428 1430 1431 1432 1433 1433 1434 1435 1435 1436 1436 1437 1439 1440 1441 1442 1442 1442 1443 1443 1443 1443 1443 1443 1443 1444 1444 1445 1446 1447 1447 1448 1449 1449 1450 1451 1451 1450 1450 1450 1450 1449 1449 1449 1449 1449 1449 1448 1448 1447 1447 1447 1447 1447 1447 1447 1447 1447 1447 1446 1446 1445 1445 1444 1443 1443 1442 1441 1441 1440 1440 1438 1436 1435 1434 1433 1431 1430 1429 1427 1425 1423
1422 1424 1426 1428 1429 1431 1431 1431 1432 1433 1434 1435 1435 1436 1437 1438 1439 1440 1440 1440 1441 1442 1442 1442 1442 1442 1443 1443 1443 1443 1443 1444 1445 1446 1446 1447 1447 1448 1449 1448 1448 1448 1448 1448 1447 1447 1447 1447 1447 1447 1446 1446 1446 1446 1446 1446 1446 1446 1446 1446 1445 1445 1445 1444 1444 1443 1443 1442 1441 1441 1440 1440 1439 1439 1438 1436 1435 1434 1432 1431 1430 1429 1427 1426 1424
1423 1425 1426 1427 1428 1430 1430 1430 1431 1433 1434 1434 1435 1436 1437 1438 1438 1439 1439 1439 1440 1441 1441 1441 1442 1442 1442 1442 1442 1442 1443 1443 1443 1444 1444 1445 1445 1446 1446 1446 1446 1446 1446 1445 1445 1445 1445 1445 1445 1445 1444 1444 1444 1444 1444 1444 1445 1445 1444 1444 1444 1443 1443 1443 1442 1442 1441 1440 1440 1439 1439 1439 1438 1438 1437 1436 1434 1433 1432 1431 1430 1428 1427 1426 1425
1423 1424 1426 1427 1428 1428 1429 1430 1431 1433 1434 1434 1434 1435 1436 1437 1437 1438 1438 1439 1439 1440 1440 1440 1440 1440 1441 1441 1441 1441 1442 1442 1442 1442 1443 1443 1444 1445 1444 1444 1444 1444 1444 1444 1443 1443 1443 1443 1443 1443 1442 1442 1442 1443 1443 1443 1443 1443 1443 1442 1442 1442 1441 1441 1440 1440 1439 1439 1438 1438 1438 1438 1438 1437 1436 1435 1434 1433 1432 1430 1429 1428 1428 1427 1425
1423 1425 1426 1427 1428 1428 1429 1430 1431 1432 1433 1434 1434 1435 1435 1436 1436 1437 1437 1438 1438 1439 1439 1439 1439 1439 1439 1439 1440 1440 1440 1440 1441 1441 1441 1441 1442 1443 1443 1442 1442 1442 1442 1442 1442 1441 1441 1441 1441 1441 1441 1441 1441 1441 1441 1441 1441 1441 1441 1440 1440 1440 1440 1439 1439 1438 1437 1437 1437 1437 1437 1437 1437 1436 1436 1435 1434 1433 1431 1430 1429 1428 1428 1427 1426
1424 1425 1426 1427 1427 1427 1428 1429 1431 1431 1432 1433 1433 1434 1434 1435 1435 1436 1436 1437 1437 1437 1437 1437 1437 1437 1438 1438 1438 1438 1438 1438 1439 1439 1439 1440 1440 1441 1441 1440 1440 1440 1440 1440 1440 1440 1440 1439 1439 1439 1439 1439 1439 1439 1440 1440 1439 1439 1439 1439 1439 1438 1438 1438 1437 1436 1436 1435 1436 1436 1436 1436 1436 1435 1435 1434 1433 1432 1431 1430 1429 1428 1428 1428 1427